"Pseudo-MPEC" for P110Jj3

Created 2020 May 27 22:07:10 UT using Find_Orb

Click here for an explanation of pseudo-MPECs

 
 Astrometry: 
     P110Jj3  C2020 05 211Dx$VhFAstrometryn#6redacted;F^CW/j9\`L\LurZ8click:@F51
     P110Jj3  C2020 05 217Ki*t1PC4@C,%@dh1#JK*,w%$heren9p.Y.4xQLcHowforh9*GYHF51
     P110Jj3  C2020 05 215DK`o/lmexplanation4K;(A#a)k9[cfD1[uNY!.'7R-wiI+nd36F51
     P110Jj3 ^C2020 05 22.31861013 59 08.207-37 40 23.33   ~5M8q 20.69GVNEOCP568
     P110Jj3 ^C2020 05 22.31955713 59 08.082-37 40 29.91   ~5M8q 20.97GVNEOCP568

Station data:
(568) Mauna Kea  (N19.826116 W155.472200)  US/Hawaii.
(F51) Pan-STARRS 1, Haleakala  (N20.707235 W156.255910)  US/Hawaii.
   Observers N. Primak, A. Schultz, S. Watters, J. Thiel, T. Goggia. Measurer
   PS1 Science Consortium. 1.8-m Ritchey-Chrétien + CCD.

Orbital elements:  P110Jj3
   Perihelion 2020 Jun 29.464666 +/- 0.215 TT = 11:09:07 (JD 2459029.964666)
Epoch 2020 May 22.0 TT = JDT 2458991.5   Earth MOID: 0.0221   Ma: 0.0300
M 339.72165419 +/- 0.49             (J2000 ecliptic)          AutoNEOCP
n   0.52719412 +/- 0.014            Peri.  275.80010 +/- 7
a   1.51759425 +/- 0.0269           Node     7.08781 +/- 6
e   0.3490875 +/- 0.0136            Incl.    1.47720 +/- 0.13
P   1.87/682.85d           H 26.2   G  0.15   U  9.9  
q 0.98782092 +/- 0.0037    Q 2.04736759 +/- 0.0571
From 5 observations 2020 May 21-22 (24.1 hr); mean residual 0".09
Residuals in arcseconds: 
200521 F51  .04-  .16+    200521 F51  .01-  .05+    200522 568  .02+  .00     
200521 F51  .04+  .21-    200522 568  .02-  .00     

Ephemerides (geocentric):
Date (UTC) HH   RA              Dec         delta   r     elong  mag " sig PA
---- -- -- --  -------------   -----------  ------ ------ -----  --- ---- ---
2020 05 27 22  13 51 42.206   -53 16 32.33  .03700 1.0410 137.5 20.7  480   6
2020 05 27 23  13 51 36.887   -53 26 36.01  .03688 1.0409 137.4 20.7  490   6
2020 05 28 00  13 51 31.507   -53 36 43.32  .03677 1.0407 137.3 20.7  499   6
2020 05 28 01  13 51 26.066   -53 46 54.28  .03666 1.0406 137.1 20.7  509   6
2020 05 28 02  13 51 20.563   -53 57 08.90  .03654 1.0405 137.0 20.7  519   6
2020 05 28 03  13 51 14.996   -54 07 27.21  .03643 1.0404 136.9 20.7  530   6
2020 05 28 04  13 51 09.363   -54 17 49.23  .03632 1.0402 136.8 20.7  540   6
2020 05 28 05  13 51 03.663   -54 28 14.99  .03621 1.0401 136.7 20.7  551   6
2020 05 28 06  13 50 57.894   -54 38 44.51  .03610 1.0400 136.5 20.7  561   6
2020 05 28 07  13 50 52.056   -54 49 17.80  .03599 1.0398 136.4 20.7  572   6
2020 05 28 08  13 50 46.146   -54 59 54.90  .03588 1.0397 136.3 20.7  583   6
2020 05 28 09  13 50 40.162   -55 10 35.82  .03577 1.0396 136.2 20.7  594   6
2020 05 28 10  13 50 34.104   -55 21 20.58  .03566 1.0395 136.0 20.7  606   6
2020 05 28 11  13 50 27.969   -55 32 09.22  .03555 1.0393 135.9 20.7  617   6
2020 05 28 12  13 50 21.755   -55 43 01.74  .03544 1.0392 135.8 20.7  629   6
2020 05 28 13  13 50 15.460   -55 53 58.18  .03533 1.0391 135.6 20.7  641   6
2020 05 28 14  13 50 09.083   -56 04 58.56  .03522 1.0389 135.5 20.7  653   6
2020 05 28 15  13 50 02.622   -56 16 02.89  .03512 1.0388 135.4 20.7  665   6
2020 05 28 16  13 49 56.074   -56 27 11.20  .03501 1.0387 135.2 20.7  677   6
2020 05 28 17  13 49 49.438   -56 38 23.51  .03490 1.0386 135.1 20.7  690   6
2020 05 28 18  13 49 42.710   -56 49 39.85  .03480 1.0384 135.0 20.7  703   6
2020 05 28 19  13 49 35.890   -57 01 00.22  .03469 1.0383 134.8 20.6  715   6
2020 05 28 20  13 49 28.974   -57 12 24.67  .03458 1.0382 134.7 20.6  729   6
2020 05 28 21  13 49 21.960   -57 23 53.20  .03448 1.0381 134.6 20.6  742   6
2020 05 28 22  13 49 14.846   -57 35 25.85  .03437 1.0379 134.4 20.6  755   6
2020 05 28 23  13 49 07.629   -57 47 02.62  .03427 1.0378 134.3 20.6  769   6
2020 05 29 00  13 49 00.307   -57 58 43.55  .03417 1.0377 134.1 20.6  783   6
2020 05 29 01  13 48 52.876   -58 10 28.64  .03406 1.0376 134.0 20.6  797   6
2020 05 29 02  13 48 45.334   -58 22 17.94  .03396 1.0374 133.9 20.6  811   6
2020 05 29 03  13 48 37.677   -58 34 11.44  .03386 1.0373 133.7 20.6  825   6
2020 05 29 04  13 48 29.904   -58 46 09.18  .03375 1.0372 133.6 20.6  840   6
2020 05 29 05  13 48 22.009   -58 58 11.18  .03365 1.0371 133.4 20.6  854   6
2020 05 29 06  13 48 13.992   -59 10 17.45  .03355 1.0369 133.3 20.6  869   6
2020 05 29 07  13 48 05.847   -59 22 28.02  .03345 1.0368 133.1 20.6  885   6
2020 05 29 08  13 47 57.571   -59 34 42.91  .03335 1.0367 133.0 20.6  900   6
2020 05 29 09  13 47 49.162   -59 47 02.13  .03325 1.0366 132.9 20.6  915   6
2020 05 29 10  13 47 40.614   -59 59 25.70  .03315 1.0364 132.7 20.6  931   6
2020 05 29 11  13 47 31.924   -60 11 53.65  .03305 1.0363 132.6 20.6  947   6
2020 05 29 12  13 47 23.088   -60 24 25.98  .03295 1.0362 132.4 20.6  963   6
2020 05 29 13  13 47 14.102   -60 37 02.73  .03285 1.0361 132.3 20.6  980   6
2020 05 29 14  13 47 04.962   -60 49 43.91  .03275 1.0359 132.1 20.6  996   6
2020 05 29 15  13 46 55.662   -61 02 29.54  .03266 1.0358 131.9 20.6 1013   6
2020 05 29 16  13 46 46.198   -61 15 19.63  .03256 1.0357 131.8 20.6 1030   6
2020 05 29 17  13 46 36.565   -61 28 14.20  .03246 1.0356 131.6 20.6 1047   6
2020 05 29 18  13 46 26.758   -61 41 13.27  .03236 1.0354 131.5 20.6 1065   6
2020 05 29 19  13 46 16.771   -61 54 16.85  .03227 1.0353 131.3 20.6 1082   6
2020 05 29 20  13 46 06.600   -62 07 24.97  .03217 1.0352 131.2 20.6 1100   6
2020 05 29 21  13 45 56.238   -62 20 37.64  .03208 1.0351 131.0 20.6 1118   6